Location: Christchurch
(43.5330°S, 172.6330°E)
Time: 14:53:11
(UTC+12:00)

ISS - Pass Details

Date: 25 May 2021
Orbit: 417 x 422 km, 51.6° (Epoch: 22 June)

Event Time Altitude Azimuth Distance (km) Brightness Sun altitude
Exits shadow 05:00:53 18° 79° (E) 1,145 -0.8 -29.5°
Drops below altitude 10° 05:02:14 10° 98° (E) 1,532 0.0 -29.3°
Sets 05:04:38 0° 113° (ESE) 2,404 1.1 -28.8°
